TimeCDT,TemperatureF,Dew PointF,Humidity,Sea Level PressureIn,VisibilityMPH,Wind Direction,Wind SpeedMPH,Gust SpeedMPH,PrecipitationIn,Events,Conditions,WindDirDegrees,DateUTC
12:52 AM,54.0,36.0,51,30.26,10.0,NE,6.9,-,N/A,,Overcast,40,2012-10-05 05:52:00
1:52 AM,52.0,35.1,53,30.25,10.0,NNE,8.1,-,N/A,,Scattered Clouds,20,2012-10-05 06:52:00
3:52 AM,46.0,34.0,63,30.28,10.0,North,6.9,-,N/A,,Clear,360,2012-10-05 08:52:00
4:52 AM,48.0,34.0,58,30.25,10.0,NE,9.2,-,N/A,,Clear,40,2012-10-05 09:52:00
5:52 AM,48.9,33.1,54,30.27,10.0,NNE,11.5,-,N/A,,Overcast,20,2012-10-05 10:52:00
6:52 AM,48.9,33.1,54,30.28,10.0,NNE,8.1,-,N/A,,Overcast,20,2012-10-05 11:52:00
7:52 AM,48.0,32.0,54,30.27,10.0,NNE,12.7,-,N/A,,Overcast,30,2012-10-05 12:52:00
8:52 AM,48.9,30.0,48,30.27,10.0,NNE,13.8,-,N/A,,Overcast,30,2012-10-05 13:52:00
10:52 AM,48.9,30.9,50,30.28,10.0,NNE,12.7,-,N/A,,Overcast,30,2012-10-05 15:52:00
12:52 PM,52.0,28.9,41,30.32,10.0,North,18.4,24.2,N/A,,Overcast,360,2012-10-05 17:52:00
2:52 PM,52.0,32.0,47,30.27,10.0,North,12.7,20.7,N/A,,Overcast,360,2012-10-05 19:52:00
3:52 PM,52.0,30.9,45,30.27,10.0,North,16.1,23.0,N/A,,Overcast,10,2012-10-05 20:52:00
4:52 PM,50.0,30.0,46,30.27,10.0,NE,6.9,-,N/A,,Overcast,40,2012-10-05 21:52:00
5:52 PM,50.0,32.0,50,30.28,10.0,NNW,12.7,-,N/A,,Clear,340,2012-10-05 22:52:00
6:52 PM,45.0,32.0,60,30.29,10.0,North,6.9,-,N/A,,Clear,350,2012-10-05 23:52:00
7:52 PM,41.0,32.0,70,30.30,7.0,Calm,Calm,-,N/A,,Clear,0,2012-10-06 00:52:00
8:52 PM,34.0,28.9,82,30.31,7.0,Calm,Calm,-,N/A,,Clear,0,2012-10-06 01:52:00
9:52 PM,30.0,26.1,85,30.32,5.0,NNW,3.5,-,N/A,,Clear,340,2012-10-06 02:52:00
10:52 PM,30.9,28.9,92,30.33,9.0,North,3.5,-,N/A,,Clear,350,2012-10-06 03:52:00
11:52 PM,30.0,27.0,88,30.33,7.0,WNW,3.5,-,N/A,,Clear,290,2012-10-06 04:52:00